Dalzell, IL

10:44 AM CST on February 19, 2017 (GMT -0600)
Illinois Valley Regional-Duncan

Weather History for KVYS - October, 2012

Change the Weather History Date:

Monday, October 1, 2012

  Actual Average Record
Temperature  
Mean Temperature 55 °F -  
Max Temperature 66 °F 74 °F 90 °F (1971)
Min Temperature 44 °F 45 °F 32 °F (1974)
Degree Days  
Heating Degree Days 10    
Growing Degree Days 5 (Base 50)    
Moisture  
Dew Point 43 °F    
Average Humidity 64    
Maximum Humidity 93    
Minimum Humidity 38    
Precipitation  
Precipitation 0.00 in - - ()
Sea Level Pressure  
Sea Level Pressure 29.87 in    
Wind  
Wind Speed 5 mph (ENE)    
Max Wind Speed 8 mph    
Max Gust Speed -    
Visibility 10 miles    
Events      
Averages and records for this station are not official NWS values.
T = Trace of Precipitation, MM = Missing Value Source: NWS Daily Summary

Daily Weather History Graph

Daily Weather History Graph

Search for Another Location

Airport or City:

Trip Planner

Search our weather history database for the weather conditions in past years. The results will help you decide how hot, cold, wet, or windy it might be!

Date:

Astronomy

Oct. 01, 2012 Rise Set
Actual Time 6:53 AM CDT 6:37 PM CDT
Civil Twilight 6:26 AM CDT 7:05 PM CDT
Nautical Twilight 5:54 AM CDT 7:37 PM CDT
Astronomical Twilight 5:21 AM CDT 8:09 PM CDT
Moon 7:12 PM CDT (10/1) 8:24 AM CDT (10/1)
Length of Visible Light 12h 38m
Length of Day
11h 43m
Full, 98% of the Moon is Illuminated
Oct 1
Full
Oct 8
Last Quarter
Oct 15
New
Oct 21
First Quarter
Oct 29
Full

Hourly Weather History & Observations

Time (CDT) Temp. Windchill Dew Point Humidity Pressure Visibility Wind Dir Wind Speed Gust Speed Precip Events Conditions
12:15 AM 51.1 °F - 41.2 °F 69% 29.93 in 10.0 mi ENE 5.8 mph - N/A   Clear
12:35 AM 50.5 °F - 41.2 °F 70% 29.93 in 10.0 mi ENE 5.8 mph - N/A   Clear
12:55 AM 49.8 °F - 41.0 °F 72% 29.93 in 10.0 mi NE 5.8 mph - N/A   Clear
1:15 AM 48.2 °F - 40.6 °F 75% 29.92 in 10.0 mi NE 6.9 mph - N/A   Clear
1:35 AM 47.8 °F - 40.6 °F 76% 29.92 in 10.0 mi NNE 5.8 mph - N/A   Clear
1:55 AM 48.4 °F - 41.2 °F 76% 29.92 in 10.0 mi NE 5.8 mph - N/A   Clear
2:15 AM 48.2 °F - 41.0 °F 76% 29.91 in 10.0 mi NE 5.8 mph - N/A   Clear
2:35 AM 47.1 °F - 41.0 °F 79% 29.91 in 10.0 mi NE 5.8 mph - N/A   Clear
2:55 AM 46.6 °F - 41.2 °F 81% 29.91 in 10.0 mi ENE 5.8 mph - N/A   Clear
3:15 AM 46.6 °F - 41.0 °F 81% 29.90 in 10.0 mi ENE 5.8 mph - N/A   Clear
3:35 AM 46.6 °F - 41.4 °F 82% 29.90 in 10.0 mi ENE 4.6 mph - N/A   Clear
3:55 AM 46.2 °F 43.3 °F 41.4 °F 83% 29.90 in 10.0 mi NE 5.8 mph - N/A   Clear
4:15 AM 46.0 °F 43.1 °F 41.7 °F 85% 29.90 in 10.0 mi NNE 5.8 mph - N/A   Clear
4:35 AM 44.6 °F 41.4 °F 41.0 °F 87% 29.90 in 10.0 mi NNE 5.8 mph - N/A   Clear
4:55 AM 44.6 °F 40.7 °F 41.0 °F 87% 29.89 in 10.0 mi NNE 6.9 mph - N/A   Clear
5:15 AM 44.6 °F 40.7 °F 41.2 °F 88% 29.90 in 10.0 mi NE 6.9 mph - N/A   Clear
5:35 AM 45.5 °F 42.5 °F 42.1 °F 88% 29.89 in 10.0 mi NNE 5.8 mph - N/A   Clear
5:55 AM 46.4 °F 44.3 °F 42.8 °F 87% 29.90 in 10.0 mi NNE 4.6 mph - N/A   Clear
6:15 AM 45.5 °F 43.2 °F 42.1 °F 88% 29.91 in 10.0 mi NNE 4.6 mph - N/A   Clear
6:35 AM 45.1 °F 42.0 °F 42.1 °F 89% 29.91 in 10.0 mi NE 5.8 mph - N/A   Clear
6:55 AM 44.6 °F 41.4 °F 42.8 °F 93% 29.91 in 10.0 mi ENE 5.8 mph - N/A   Clear
7:15 AM 46.9 °F - 44.2 °F 90% 29.91 in 10.0 mi ENE 4.6 mph - N/A   Clear
7:35 AM 46.9 °F - 44.1 °F 90% 29.92 in 10.0 mi ENE 4.6 mph - N/A   Clear
7:55 AM 48.4 °F - 45.5 °F 90% 29.91 in 10.0 mi ENE 4.6 mph - N/A   Clear
8:15 AM 50.0 °F - 46.6 °F 88% 29.91 in 10.0 mi ENE 4.6 mph - N/A   Clear
8:35 AM 51.4 °F - 47.5 °F 86% 29.91 in 10.0 mi ENE 4.6 mph - N/A   Clear
8:55 AM 52.5 °F - 47.8 °F 84% 29.92 in 10.0 mi ENE 6.9 mph - N/A   Clear
9:15 AM 53.4 °F - 48.2 °F 82% 29.92 in 10.0 mi ENE 3.5 mph - N/A   Clear
9:35 AM 55.4 °F - 48.4 °F 77% 29.91 in 10.0 mi East 3.5 mph - N/A   Clear
9:55 AM 57.2 °F - 48.0 °F 71% 29.91 in 10.0 mi East 4.6 mph - N/A   Clear
10:15 AM 58.1 °F - 47.1 °F 67% 29.91 in 10.0 mi Calm Calm - N/A   Clear
10:35 AM 59.9 °F - 47.3 °F 63% 29.90 in 10.0 mi Calm Calm - N/A   Clear
10:55 AM 60.4 °F - 45.0 °F 57% 29.90 in 10.0 mi SE 3.5 mph - N/A   Clear
11:15 AM 61.7 °F - 43.9 °F 52% 29.90 in 10.0 mi Calm Calm - N/A   Clear
11:35 AM 62.8 °F - 43.2 °F 49% 29.89 in 10.0 mi East 4.6 mph - N/A   Clear
11:55 AM 63.9 °F - 42.8 °F 46% 29.89 in 10.0 mi Calm Calm - N/A   Clear
12:15 PM 64.6 °F - 41.9 °F 44% 29.88 in 10.0 mi East 6.9 mph - N/A   Clear
12:35 PM 64.9 °F - 42.3 °F 44% 29.88 in 10.0 mi SE 8.1 mph - N/A   Clear
12:55 PM 66.2 °F - 42.8 °F 43% 29.87 in 10.0 mi East 5.8 mph - N/A   Clear
1:15 PM 65.7 °F - 41.7 °F 42% 29.86 in 10.0 mi NE 5.8 mph - N/A   Clear
1:35 PM 66.0 °F - 42.4 °F 42% 29.85 in 10.0 mi ENE 5.8 mph - N/A   Clear
1:55 PM 66.2 °F - 41.0 °F 40% 29.84 in 10.0 mi East 4.6 mph - N/A   Clear
2:15 PM 66.2 °F - 40.8 °F 40% 29.84 in 10.0 mi East 6.9 mph - N/A   Clear
2:35 PM 66.2 °F - 41.0 °F 40% 29.84 in 10.0 mi NE 3.5 mph - N/A   Clear
2:55 PM 66.2 °F - 40.5 °F 39% 29.83 in 10.0 mi ENE 4.6 mph - N/A   Clear
3:15 PM 66.2 °F - 40.6 °F 39% 29.83 in 10.0 mi ENE 4.6 mph - N/A   Clear
3:35 PM 66.2 °F - 40.8 °F 40% 29.83 in 10.0 mi ENE 5.8 mph - N/A   Clear
3:55 PM 66.2 °F - 41.4 °F 40% 29.83 in 10.0 mi East 4.6 mph - N/A   Clear
4:15 PM 65.7 °F - 41.5 °F 41% 29.83 in 10.0 mi East 4.6 mph - N/A   Clear
4:35 PM 65.7 °F - 41.0 °F 41% 29.82 in 10.0 mi ENE 4.6 mph - N/A   Clear
4:55 PM 65.7 °F - 39.2 °F 38% 29.82 in 10.0 mi NE 6.9 mph - N/A   Clear
5:15 PM 65.7 °F - 40.3 °F 39% 29.82 in 10.0 mi ENE 5.8 mph - N/A   Clear
5:35 PM 64.9 °F - 41.5 °F 42% 29.82 in 10.0 mi ENE 5.8 mph - N/A   Clear
5:55 PM 64.0 °F - 42.1 °F 45% 29.82 in 10.0 mi ENE 6.9 mph - N/A   Clear
6:15 PM 63.1 °F - 42.3 °F 46% 29.82 in 10.0 mi East 4.6 mph - N/A   Clear
6:35 PM 61.9 °F - 42.1 °F 48% 29.82 in 10.0 mi ENE 4.6 mph - N/A   Clear
6:55 PM 60.8 °F - 41.9 °F 50% 29.82 in 10.0 mi ENE 4.6 mph - N/A   Clear
7:15 PM 60.3 °F - 41.2 °F 49% 29.82 in 10.0 mi ENE 4.6 mph - N/A   Clear
7:35 PM 60.1 °F - 41.0 °F 49% 29.83 in 10.0 mi NE 4.6 mph - N/A   Clear
7:55 PM 59.7 °F - 42.1 °F 52% 29.83 in 10.0 mi NE 3.5 mph - N/A   Clear
8:15 PM 58.5 °F - 42.4 °F 55% 29.84 in 10.0 mi NNE 4.6 mph - N/A   Clear
8:35 PM 58.1 °F - 42.8 °F 57% 29.84 in 10.0 mi NE 5.8 mph - N/A   Clear
8:55 PM 57.0 °F - 42.8 °F 59% 29.85 in 10.0 mi NE 5.8 mph - N/A   Clear
9:15 PM 56.3 °F - 42.8 °F 61% 29.84 in 10.0 mi NE 5.8 mph - N/A   Clear
9:35 PM 55.9 °F - 43.0 °F 62% 29.85 in 10.0 mi ENE 5.8 mph - N/A   Clear
9:55 PM 55.2 °F - 43.3 °F 64% 29.84 in 10.0 mi NE 5.8 mph - N/A   Clear
10:15 PM 55.6 °F - 43.9 °F 65% 29.84 in 10.0 mi ENE 5.8 mph - N/A   Clear
10:35 PM 55.6 °F - 44.1 °F 65% 29.84 in 10.0 mi ENE 4.6 mph - N/A   Clear
10:55 PM 55.2 °F - 43.7 °F 65% 29.84 in 10.0 mi ENE 5.8 mph - N/A   Clear
11:15 PM 54.7 °F - 43.9 °F 67% 29.84 in 10.0 mi ENE 5.8 mph - N/A   Clear
11:35 PM 54.7 °F - 44.6 °F 69% 29.83 in 10.0 mi NNE 5.8 mph - N/A   Clear
11:55 PM 54.0 °F - 44.4 °F 70% 29.83 in 10.0 mi NNE 6.9 mph - N/A   Clear